This demonstration page uses our WeatherBlox Daily Observations layout. Learn more.

Left ArrowRight Arrow

38.20091, -84.87328

Hourly Observations for January 2, 2015

Temp ( °F °C ) Dew Point ( °F °C ) Humidity (%) Winds ( mph kmh ) Pressure ( in mb ) Visibility ( mi km ) Precip ( " mm )
12:53 am 00:53 Cloudy 35 1.7 23 -5 61 61 SW 10 17 30.26 1025 10 16 0.00 0.00
1:53 am 01:53 Cloudy 35 1.7 24 -4.4 64 64 SW 10 17 30.27 1025 10 16 0.00 0.00
2:53 am 02:53 Cloudy 35 1.7 24 -4.4 64 64 SW 8 13 30.28 1025 10 16 0.00 0.00
3:53 am 03:53 Cloudy 34 1.1 26 -3.3 73 73 SW 6 9 30.28 1026 10 16 0.00 0.00
4:53 am 04:53 Cloudy with Light Wintry Mix 33 0.6 27 -2.8 78 78 SW 5 7 30.27 1025 10 16 0.00 0.03
5:53 am 05:53 Cloudy 34 1.1 27 -2.8 76 76 Calm 30.28 1025 10 16 0.00 0.03
6:53 am 06:53 Cloudy 33 0.6 29 -1.7 85 85 Calm 30.28 1026 10 16 0.00 0.00
7:53 am 07:53 Cloudy 34 1.1 28 -2.2 79 79 Calm 30.31 1027 10 16 0.00 0.00
8:18 am 08:18 Cloudy 33 0.6 29 -1.7 85 85 Calm 30.36 1028 10 16 0.00 0.00
8:53 am 08:53 Cloudy 34 1.1 29 -1.7 82 82 Calm 30.34 1027 10 16 0.00 0.00
9:53 am 09:53 Cloudy 35 1.7 29 -1.7 78 78 S 5 7 30.35 1028 9 14 0.00 0.00
10:02 am 10:02 Cloudy 35 1.7 29 -1.7 78 78 S 5 7 30.39 1029 10 16 0.00 0.00
10:15 am 10:15 Cloudy 35 1.7 29 -1.7 78 78 SW 5 7 30.42 1030 9 14 0.00 0.00
10:53 am 10:53 Cloudy with Mist and Fog 34 1.1 30 -1.1 85 85 SW 3 6 30.38 1029 3 4 0.00 0.00
11:08 am 11:08 Cloudy with Mist and Fog 34 1.1 31 -0.6 89 89 SW 6 9 30.42 1030 3 4 0.00 0.00
11:15 am 11:15 Cloudy with Mist and Fog 34 1.1 31 -0.6 89 89 WSW 5 7 30.42 1030 3 5 0.00 0.00
11:28 am 11:28 Cloudy with Mist and Fog 34 1.1 31 -0.6 89 89 SW 5 7 30.42 1030 3 5 0.00 0.00
11:41 am 11:41 Cloudy with Mist and Fog 34 1.1 32 0 92 92 WSW 5 7 30.42 1030 3 4 0.00 0.00
11:51 am 11:51 Cloudy with Mist and Fog 34 1 32 0 93 93 WSW 3 6 30.42 1030 2 3 0.00 0.00
11:53 am 11:53 Cloudy with Mist and Fog 34 1.1 32 0 92 92 SW 5 7 30.37 1028 2 3 0.00 0.00
12:11 pm 12:11 Cloudy with Mist and Fog 34 1.1 32 0 92 92 Calm 30.39 1029 3 5 0.00 0.00
12:22 pm 12:22 Cloudy with Mist and Fog 34 1.1 32 0 92 92 Calm 30.39 1029 3 5 0.00 0.00
12:53 pm 12:53 Cloudy with Mist and Fog 35 1.7 32 0 89 89 SSW 3 6 30.33 1027 6 10 0.00 0.00
1:53 pm 13:53 Cloudy 36 2.2 32 0 86 86 SSE 6 9 30.32 1027 7 11 0.00 0.00
2:53 pm 14:53 Cloudy 36 2.2 32 0 86 86 SSE 5 7 30.32 1027 7 11 0.00 0.00
3:05 pm 15:05 Cloudy 36 2.2 32 0 86 86 SSE 6 9 30.36 1028 7 11 0.00 0.00
3:53 pm 15:53 Cloudy 36 2.2 32 0 86 86 SSE 7 11 30.32 1027 9 14 0.00 0.00
4:35 pm 16:35 Cloudy 36 2.2 32 0 86 86 SE 6 9 30.36 1028 9 14 0.00 0.00
4:53 pm 16:53 Cloudy 36 2.2 32 0 86 86 SE 6 9 30.33 1027 8 13 0.00 0.00
5:05 pm 17:05 Cloudy with Mist and Fog 36 2.2 32 0 86 86 SE 6 9 30.36 1028 5 8 0.00 0.00
5:53 pm 17:53 Cloudy with Mist and Fog 36 2.2 33 0.6 89 89 ESE 3 6 30.34 1027 5 8 0.00 0.00
6:53 pm 18:53 Cloudy with Mist and Fog 36 2.2 33 0.6 89 89 E 5 7 30.32 1027 5 8 0.00 0.00
7:53 pm 19:53 Cloudy with Mist and Fog 36 2.2 33 0.6 89 89 ENE 5 7 30.32 1027 6 10 0.00 0.00
8:44 pm 20:44 Cloudy with Mist and Fog 36 2.2 33 0.6 89 89 ENE 5 7 30.36 1028 5 8 0.00 0.00
8:53 pm 20:53 Cloudy with Mist and Fog 36 2.2 33 0.6 89 89 ENE 5 7 30.30 1026 6 10 0.00 0.00
9:53 pm 21:53 Cloudy 37 2.8 33 0.6 86 86 ESE 5 7 30.27 1025 7 11 0.00 0.00
10:53 pm 22:53 Cloudy 37 2.8 33 0.6 86 86 E 5 7 30.26 1025 7 11 0.00 0.03
11:53 pm 23:53 Cloudy 36 2.2 33 0.6 89 89 ESE 5 7 30.24 1024 8 13 0.00 0.00

Powered by AerisWeather